Helicity
13 11 9 10 10 11 20 26 49 78 99 105 88 72 70 45 44 102 115 73 27 7 72 25 87 71 103 109 99 112 160 133 110 139 70 14 125 -26 -2 78 132 190 228 155 206
13 11 11 10 9 7 23 45 60 90 116 98 73 70 53 46 98 112 37 11 25 16 13 76 104 91 85 116 111 138 170 112 104 128 122 162 136 50 -33 59 176 133 141 166 205
12 10 9 12 10 13 30 51 70 114 112 94 80 54 47 63 114 86 13 9 15 48 9 8 26 49 67 89 101 103 131 93 123 86 79 119 118 171 3 63 133 230 220 186 149
8 10 15 18 19 24 36 54 90 112 109 81 62 54 26 64 237 29 -12 -23 14 39 31 33 72 46 85 89 79 107 75 69 84 72 82 93 114 113 116 137 176 247 178 145 187
7 12 15 19 28 30 50 68 99 109 103 67 44 41 57 73 42 11 -16 6 32 48 30 19 54 49 65 113 67 68 90 80 54 98 65 54 81 90 151 182 148 259 277 152 173
9 14 19 24 30 38 60 76 102 103 87 57 51 48 74 107 25 32 42 46 63 53 29 8 7 52 100 188 127 130 89 62 94 94 51 -14 12 26 125 81 149 282 396 302 210
11 18 24 29 39 48 64 72 90 74 74 64 71 60 74 40 46 33 55 96 65 83 52 3 4 -33 69 173 105 102 113 80 34 82 38 -19 8 -2 82 119 224 298 317 345 253
22 24 34 37 56 66 65 75 72 111 75 65 68 66 50 46 72 59 61 61 91 76 53 -8 5 22 25 86 74 97 54 64 64 46 18 -33 -75 -67 42 76 270 325 239 332 273
25 30 48 52 78 100 82 56 70 63 -17 44 70 70 22 29 65 54 95 74 87 79 55 25 10 22 76 78 78 108 89 74 123 52 44 -13 -131 -23 -0 -53 -29 211 238 281 304
31 37 55 75 111 144 105 20 94 56 19 22 47 59 32 86 90 75 81 77 89 86 55 25 16 40 92 93 75 74 105 100 82 135 24 -8 -18 -44 -38 30 15 98 178 221 309
35 43 47 92 135 189 167 77 66 142 104 76 40 36 99 121 93 71 64 82 90 81 41 26 9 31 63 110 110 159 79 61 110 113 99 -11 -12 -5 -30 59 60 42 164 218 333
36 45 42 98 154 166 176 142 142 62 102 37 45 77 150 109 23 28 53 51 73 38 43 22 -7 -11 -25 69 69 89 99 93 87 99 64 82 13 29 24 38 75 48 93 249 357
40 45 52 93 207 186 186 162 29 32 140 56 51 43 63 68 2 14 8 40 72 49 15 46 -37 -9 14 37 72 79 73 70 104 158 93 106 63 36 44 55 92 16 -93 115 302
48 56 78 80 204 179 172 73 25 46 317 133 37 56 68 63 47 35 -7 59 48 50 35 40 -17 -7 13 29 62 76 62 88 68 134 123 116 1 70 38 45 87 30 91 -14 197
54 68 105 169 173 225 157 48 16 37 351 85 43 67 59 72 60 45 25 28 58 71 47 21 -16 -3 6 37 34 109 51 55 59 110 189 182 77 93 69 63 76 71 101 -103 78
63 77 128 191 181 178 85 52 43 207 242 89 66 54 39 115 44 60 37 23 38 24 46 88 33 -10 -14 28 37 53 96 106 88 112 160 172 117 106 64 47 28 67 20 -36 62
65 88 173 169 178 104 75 104 169 292 90 88 65 65 63 85 85 59 -16 -18 -42 32 17 40 18 -12 -4 45 61 77 103 235 192 144 160 139 112 134 92 59 56 43 31 25 169
77 130 169 161 137 83 99 114 341 97 103 82 72 59 93 78 89 84 29 -19 -20 4 72 36 -4 -5 -0 35 85 93 86 163 170 168 179 144 141 139 112 157 74 83 60 6 140
112 148 177 175 93 65 103 192 139 112 56 70 50 92 98 113 111 71 35 3 -4 -31 20 46 35 24 -0 2 46 76 141 93 123 205 168 201 158 132 209 203 211 115 85 36 72
141 157 146 99 60 78 119 158 95 59 50 93 105 119 110 99 93 109 74 11 -2 16 50 42 56 47 30 2 23 83 76 152 169 198 197 175 164 220 339 239 215 204 87 70 56
130 123 125 77 72 128 152 71 60 42 71 97 106 102 117 103 136 109 66 27 -24 -1 15 37 73 69 62 -16 47 100 97 141 149 190 223 180 186 142 267 171 152 186 147 74 63
101 122 110 69 115 86 72 46 24 52 74 115 129 157 117 104 111 107 79 43 -29 -29 18 15 27 97 38 2 -12 86 60 90 176 227 207 169 209 113 104 134 113 178 141 98 89
86 50 101 68 70 40 30 58 64 69 76 83 104 125 108 117 109 104 60 25 -3 -40 -11 -9 7 4 -12 37 12 81 95 55 126 160 214 218 181 173 196 213 251 191 176 85 99
75 127 70 111 66 90 82 91 83 57 78 85 116 133 90 110 106 82 51 19 -27 6 -7 14 16 38 41 32 -24 17 104 82 48 123 191 175 166 272 314 234 264 308 345 120 150
63 65 55 28 71 99 69 62 74 68 62 63 99 119 120 118 118 117 76 31 39 -10 -14 -2 -13 48 150 85 63 31 109 126 48 55 29 77 85 146 219 233 268 253 325 285 239
54 52 53 55 72 87 76 68 77 57 60 51 84 85 132 150 145 135 65 52 31 -0 -12 11 -7 46 10 9 92 193 164 182 147 85 42 20 103 89 149 154 241 214 344 331 303
29 45 52 28 79 101 66 53 44 63 35 60 68 103 124 95 107 139 137 126 134 79 49 15 21 40 8 85 40 146 207 200 131 163 132 71 53 130 119 121 220 226 291 314 306
Wind_Speed
66 67 69 72 75 78 79 77 78 78 72 69 66 65 64 60 60 56 50 39 35 40 46 43 50 47 47 49 48 53 68 87 90 86 87 63 76 68 59 58 58 58 62 55 44
64 67 70 72 74 76 76 77 78 76 70 67 66 64 61 61 60 46 33 46 42 39 51 55 48 49 41 47 54 57 68 82 71 74 70 64 64 57 63 62 57 60 63 45 46
66 69 71 75 76 76 76 80 77 70 67 65 65 60 56 52 55 50 43 54 50 53 46 47 49 49 42 46 52 62 74 77 73 78 70 67 70 64 65 64 52 63 66 56 55
65 68 71 75 78 74 74 75 73 66 64 62 59 58 50 47 69 44 52 55 52 54 56 52 44 40 34 40 55 67 75 80 73 71 72 67 60 78 71 58 51 59 69 65 54
66 68 70 75 75 70 73 72 70 64 62 55 54 51 48 57 51 43 51 54 50 52 52 51 41 41 40 47 58 73 71 68 77 76 70 67 64 67 77 64 54 50 65 68 62
66 67 70 73 73 69 73 70 67 64 56 47 47 44 49 66 43 47 47 49 42 43 45 45 34 43 45 43 48 54 65 79 72 66 69 74 76 48 74 62 56 48 54 61 66
67 70 72 72 72 72 72 69 68 63 48 42 40 42 49 52 45 45 43 40 41 37 45 44 40 35 43 47 48 54 58 64 78 79 69 59 83 83 71 64 62 53 50 52 59
68 72 73 71 72 74 72 68 66 57 49 41 41 42 49 39 42 40 44 43 40 43 36 43 40 38 35 48 44 55 57 63 64 70 66 67 88 73 72 65 70 65 51 51 57
69 72 70 69 71 74 72 65 60 47 46 38 45 45 59 47 53 43 41 42 40 41 42 40 39 36 39 42 50 50 57 65 57 67 64 75 73 76 61 69 73 72 60 54 57
69 73 70 69 70 74 75 64 55 52 53 44 51 52 52 57 49 36 40 33 34 35 40 43 40 37 34 35 51 57 58 54 66 54 79 79 74 57 59 65 70 76 74 57 57
69 74 70 68 67 72 85 67 69 57 60 62 57 54 48 43 34 46 45 37 37 37 39 41 36 35 32 40 48 49 55 62 56 56 64 87 75 59 60 64 68 75 74 62 55
70 73 67 65 59 66 76 80 64 47 60 53 52 45 43 40 45 53 52 49 46 46 42 43 38 35 35 39 47 53 57 61 60 60 62 68 81 69 60 66 66 65 69 70 63
70 70 66 64 53 70 71 71 48 39 54 60 53 52 56 46 43 55 62 44 44 44 49 36 42 38 37 35 41 52 55 63 62 56 62 63 71 70 63 58 61 59 55 61 70
70 69 66 61 62 67 67 56 46 40 64 75 66 55 54 50 41 47 53 41 46 41 34 35 38 40 34 27 34 49 52 58 62 63 70 60 83 74 66 69 70 69 54 54 68
69 64 62 64 62 69 58 47 41 43 92 67 62 41 50 60 42 43 48 43 43 34 37 41 46 41 36 30 37 44 41 48 53 59 62 65 69 65 63 75 76 72 62 49 64
69 57 56 61 62 56 52 42 44 68 90 66 59 63 66 56 50 43 51 59 38 39 37 29 27 37 36 40 38 34 37 35 42 53 69 68 64 70 72 78 72 67 69 54 59
67 53 64 57 72 51 47 47 71 88 64 74 70 63 62 65 52 56 50 67 65 58 62 30 40 40 35 36 34 33 40 42 52 63 68 60 66 60 60 54 69 67 66 59 61
62 48 63 64 55 49 48 59 90 66 67 54 62 59 64 67 49 50 48 49 58 56 33 51 45 46 38 32 38 39 42 45 57 66 62 56 68 52 42 51 59 59 62 66 55
54 49 68 70 59 49 55 83 74 64 60 62 64 67 64 56 49 51 49 46 45 59 58 39 31 31 34 37 39 39 45 37 41 52 59 63 53 48 35 29 39 56 58 60 68
56 55 75 66 56 55 67 69 59 54 56 56 72 62 66 61 57 51 42 41 44 49 41 32 26 35 40 34 39 41 38 44 43 56 63 65 59 57 46 42 38 51 62 60 64
57 62 70 60 52 64 72 62 53 57 58 58 62 62 59 59 52 44 37 38 46 49 43 35 28 28 37 29 35 41 41 40 42 46 55 60 64 46 48 46 45 52 59 62 55
56 70 66 53 64 60 65 55 53 57 55 52 53 58 56 54 48 40 36 34 49 52 37 35 30 29 22 38 35 39 37 42 43 50 50 54 57 35 37 42 43 48 56 54 49
59 57 58 54 69 65 54 54 51 61 56 57 57 53 55 51 48 39 39 32 40 47 33 42 33 39 38 26 25 31 39 43 41 37 47 54 55 33 33 35 38 42 45 52 46
54 67 60 61 55 56 56 60 62 51 48 53 50 49 59 52 41 36 35 37 34 29 31 40 26 26 26 41 43 44 45 41 42 37 38 39 43 33 31 29 35 34 33 48 44
56 59 52 63 59 59 50 53 62 63 50 53 51 61 58 53 50 39 41 39 33 29 37 35 24 28 33 44 51 55 56 53 49 44 35 38 33 33 30 28 30 29 26 27 38
54 53 48 51 50 50 54 59 59 58 52 58 59 56 52 49 39 35 31 39 28 29 37 38 25 43 36 38 24 17 32 47 46 42 42 37 36 32 33 26 23 23 27 29 30
45 43 43 49 51 50 53 54 53 54 49 46 53 56 51 45 34 16 10 5 5 15 26 27 30 40 33 39 28 25 30 36 39 33 43 46 39 36 32 25 24 26 25 29 32
Wind_Direction
8 7 4 2 359 357 357 356 355 354 355 354 353 351 351 351 349 350 352 359 356 352 347 328 309 299 288 272 265 258 252 246 241 239 236 240 235 241 243 246 243 239 233 228 206
13 10 6 5 4 1 0 358 356 356 356 355 354 354 354 354 354 1 8 360 357 349 339 329 317 298 286 274 260 250 250 244 246 240 240 242 238 242 237 241 241 238 235 213 201
13 11 8 5 5 4 2 358 358 358 358 358 358 360 359 6 4 8 8 356 352 344 340 323 311 298 280 265 258 251 250 246 243 240 241 240 237 238 240 235 237 236 234 213 211
16 12 9 7 5 6 4 1 0 1 360 0 3 5 10 15 357 12 4 359 353 343 335 327 310 302 287 256 257 250 247 241 240 240 238 239 245 237 237 234 243 247 231 216 211
15 13 10 7 7 7 4 2 1 1 1 3 6 12 20 11 10 13 3 356 354 349 339 331 317 300 289 262 253 248 244 241 238 239 237 235 235 238 233 238 246 253 228 222 216
15 13 10 8 8 7 5 3 1 359 0 8 15 25 21 6 18 11 7 3 6 1 350 335 322 297 284 264 255 255 248 238 238 238 236 234 233 243 232 237 239 243 230 228 222
14 13 10 9 8 6 5 2 1 1 11 19 32 30 19 14 14 11 17 21 17 13 353 333 318 310 282 261 263 253 247 242 235 233 235 236 233 232 229 232 230 234 233 231 227
14 12 10 10 8 7 5 2 4 13 24 34 37 32 17 21 17 23 20 21 24 21 14 325 321 303 290 264 259 247 245 236 235 230 232 228 227 232 233 224 227 230 233 234 232
13 12 12 11 10 9 7 4 9 20 24 47 34 30 20 20 18 25 28 22 23 21 11 340 320 316 279 264 251 247 240 233 233 230 229 227 230 234 239 230 228 228 234 236 233
13 12 12 13 13 13 12 13 25 35 37 44 38 25 23 17 21 27 29 35 34 31 13 344 327 321 283 264 247 239 237 235 229 234 224 224 230 240 234 227 229 231 233 237 238
13 11 12 14 16 17 15 20 22 25 31 30 23 24 19 19 34 31 33 31 41 37 22 5 349 313 297 266 250 246 241 233 234 234 231 225 229 237 233 230 228 231 228 232 241
12 11 13 14 18 20 19 18 24 28 21 32 26 27 22 27 27 28 30 31 35 29 31 5 346 314 284 271 252 242 238 232 235 234 231 230 229 234 234 234 229 227 228 232 237
11 11 13 13 24 18 18 21 26 41 26 26 29 31 23 28 33 24 20 36 36 30 14 22 320 307 286 279 255 239 237 231 228 235 228 232 229 231 238 238 230 227 227 233 235
11 12 15 15 18 16 19 21 31 44 20 19 25 32 27 27 36 30 31 39 36 36 48 35 341 311 298 297 264 240 239 235 231 227 223 230 223 231 236 232 230 227 232 236 229
11 14 19 24 15 14 14 21 37 37 6 13 22 31 24 31 29 32 36 38 36 48 50 22 338 317 293 285 256 243 245 235 229 225 226 224 227 231 233 230 229 228 231 237 231
10 17 20 18 18 18 15 32 38 18 9 18 22 21 24 31 34 37 32 33 50 50 52 65 73 326 292 264 255 247 243 240 227 227 224 224 227 227 226 231 231 230 229 232 230
10 19 18 20 10 14 27 32 14 13 18 14 17 20 23 22 31 30 33 15 22 20 359 57 44 336 305 265 256 246 235 233 225 224 224 227 225 232 237 239 233 231 229 234 231
11 22 19 20 17 26 32 25 12 17 19 20 17 20 22 25 29 29 32 30 26 32 46 27 14 349 306 270 251 247 237 238 228 222 221 225 224 232 249 252 239 233 229 227 231
15 17 15 15 21 32 28 13 16 20 19 17 18 21 21 24 25 26 28 29 32 25 17 37 54 50 306 273 251 245 242 248 236 230 223 225 232 237 265 267 252 231 228 229 226
13 13 11 13 26 32 24 20 25 26 21 23 16 22 16 18 21 22 29 30 26 24 33 47 56 51 296 278 250 246 247 241 238 224 223 226 228 232 249 257 263 235 228 233 229
11 8 11 19 33 26 18 23 27 25 25 21 18 15 17 16 16 21 28 26 21 15 26 38 53 47 292 292 256 241 243 247 242 236 228 222 227 252 254 262 262 250 243 232 233
12 4 13 27 19 23 21 26 26 21 25 26 24 22 19 17 17 24 21 20 10 6 23 33 44 51 62 264 261 242 246 242 240 235 237 231 228 270 271 267 263 258 247 237 234
10 13 21 30 11 17 25 26 26 22 25 22 21 25 21 17 18 20 19 22 17 7 30 18 37 29 19 301 280 255 246 244 249 248 236 231 230 283 281 276 266 264 251 233 233
12 3 15 25 29 23 19 21 19 25 26 22 23 27 16 19 26 18 17 22 11 34 17 346 42 52 26 273 273 255 243 247 243 237 237 237 235 259 270 270 269 269 258 232 230
12 9 18 10 18 23 28 23 18 18 25 23 21 17 17 17 13 25 16 14 32 42 17 12 46 28 236 253 261 245 238 237 233 235 236 235 236 247 259 270 273 274 269 244 235
9 11 21 18 20 20 23 18 17 18 20 16 14 14 17 16 19 10 15 19 40 41 17 350 40 343 327 305 311 267 251 238 235 240 237 231 229 242 243 261 284 286 269 249 247
20 24 22 14 16 16 17 18 18 20 22 20 16 14 17 18 13 360 15 55 109 51 40 34 17 346 339 292 272 260 259 242 232 241 234 226 236 244 240 255 269 278 278 260 256